ダニエル彗星

33P/Daniel (2024)

English version
Home page
Updated on August 10, 2025

---------------------------------------------------------------------

・ プロフィール

・ 写真集

・ 軌道要素

Epoch 2025 May 5.0 TT = JDT 2460800.5
T 2024 Nov. 10.90103 TT                                 Alexandersen
q   2.2425027            (2000.0)            P               Q
n   0.11906253     Peri.   20.25973     +0.08404179     -0.93397522
a   4.0921603      Node    66.28072     +0.85400377     -0.11208139
e   0.4520003      Incl.   22.29404     +0.51343406     +0.33930526
P   8.28
From 807 observations 1999 Nov. 13-2025 May 2, mean residual 0".8.
     Nongravitational parameters A1 = +0.49, A2 = +0.0462.

・ 光度変化

        m1 = 7.5 + 5 logΔ + 25.0 log r(t - 60)

---------------------------------------------------------------------

軌道要素はM.P.E.C. 2025-J72に掲載されたものです。
光度グラフはComet for Windowsで作成したものです。

---------------------------------------------------------------------

Copyright(C) Seiichi Yoshida (comet@aerith.net). All rights reserved.